Showing default

LUCKY-7, 44406

Orbit data source: Space-Track

LUCKY-7, 44406 is a payload satellite owned by SkyFox Labs (CZ) in LEO that was launched on Fri, 05 Jul 2019 UTC via a SOYUZ-2-1B launch vehicle from the Vostochny Cosmodrome (VOSTO). Payloads include a variety of satellites, spacecraft, and rockets equipped with specific instruments for various scientific and technological missions. These include communications satellites like Starlink; space stations such as the ISS; scientific satellites like the Hubble; Earth observation satellites from companies like Planet Labs, Umbra, and HawkEye 360; GPS; miniature CubeSats for education and research; and military/defense satellites.

Not visible in the next 10 days
LUCKY-7 details
Identifier
44406, 2019-038W
Orbit
LEO
Last TLE update7 hours ago
Origin
Flag of CZSkyFox Labs (CZ / CZE)
ManufacturerSkyFox Labs
MissionOperational Commercial Technology
Bus & MotorCUBESAT 1U, Unknown motor
Mass1 kg wet, 1 kg dry
Launch date (UTC)
2019-07-05 (5 years ago)
Launch vehicle
SOYUZ-2-1B
Launch site
Vostochny Cosmodrome (VOSTO)
Object type
Payload
Rocket body
Debris
Shape & HBRBox, Unknown HBR
Radar Cross Section0.015 m², Small (<0.1 m²)

Expand to show TLE details & history

TLE from 7 hours ago
0 LUCKY-7
1 44406U 19038W   24340.08762230  .00684408  20562-3  15957-2 0  9997
2 44406  97.6823 352.5499 0006816 152.0443 208.1200 15.97018058301003
Epoch: 2024-12-05T02:06Z
Definitive object data (Epoch: 2024-12-05T02:06:10.566Z)
Latitude-0.00005°
Longitude-113.36757°
Altitude289.889 km
Speed7.731 km/s
True Right ascension23h 30m 11s
True Declination0° 00' 00"
Sunlit
Object was in daylight at TLE epoch
Visualization TLE readout
Latitude-16.99003°
Longitude-110.6643°
Altitude292.896 km
Speed7.728 km/s
Apparent Right ascension21h 54m 20s
Apparent Declination-31° 50' 06"
Sunlit
Object is in daylight
Visualization observer readout
Local Sidereal Time07:31:13
Azimuth274.339° WNW
Elevation-60.123°
Doppler factor1
Orbital elements
Apogee altitude284.112 km
Perigee altitude275.036 km
Semi-major axis6,657.711 km
Eccentricity0.0006816
Inclination97.6823°
RAAN352.5499°
Arg. of periapsis152.0443°
True anomaly208.08321°
Mean anomaly208.12°
Eccentric anomaly208.1016°
Mean motion3.99536 °/min
BSTAR0.0015957
Orbital period90.1 mins
Loading maneuver chart data...

LUCKY-7 Visibility forecast

Observer location: undefined°, undefined

LUCKY-7 is not visible in the next 10 days
Span
Click to sort rows by Start time (UTC) header in descending order
Start Az.
Max El. time (UTC)
Max El. Az.
Max El.
End time (UTC)
End Az.
|